Location: Campillo
(40.8621°N, 4.2488°W)
Time: 14:16:25
(UTC+00:00)

Centaur D AC-29 - Pass Details

Date: 03 October 2021
Orbit: 571 x 36266 km, 26.8° (Epoch: 20 October)

Event Time Altitude Azimuth Distance (km) Brightness Sun altitude
Rises 01:17:35 0° 84° (E) 41,126 10.6 -49.8°
Reaches altitude 10° 02:32:38 10° 86° (E) 41,008 10.7 -40.6°
Maximum altitude 05:22:09 25° 89° (E) 29,087 10.5 -10.9°
Drops below altitude 10° 06:41:30 10° 78° (ENE) 17,356 10.0 4.0°
Sets 06:55:18 0° 74° (ENE) 15,180 9.4 6.6°
